This demonstration page uses our WeatherBlox Daily Observations layout. Learn more.

41.55636, -103.73856

Hourly Observations for March 14, 2019

Temp ( °F °C ) Dew Point ( °F °C ) Humidity (%) Winds ( mph kmh ) Pressure ( in mb ) Visibility ( mi km ) Precip ( " mm )
12:53 am 00:53 Mostly Clear with Light Wintry Mix 28 -2.2 26 -3.3 92 92 NW 36 57 29.74 1007 1.5 2.414016 0.001 0.001
1:53 am 01:53 Partly Cloudy with Light Wintry Mix 28 -2.2 26 -3.3 92 92 NW 36 57 29.77 1008 1.25 2.01168 0.001 0.001
2:25 am 02:25 Mostly Cloudy with Light Wintry Mix 28 -2.2 26 -3.3 92 92 NW 37 59 29.83 1010 1 1.609344 0.001 0.001
2:34 am 02:34 Mostly Clear with Light Wintry Mix 28 -2 27 -3 93 93 NW 36 57 29.83 1010 1.25 2.01168 0 0
2:53 am 02:53 Partly Cloudy with Light Wintry Mix 28 -2.2 26 -3.3 92 92 NW 36 57 29.8 1009 1.25 2.01168 0.001 0.001
3:53 am 03:53 Cloudy with Light Wintry Mix 28 -2.2 25 -3.9 88 88 NW 35 56 29.83 1010 1.75 2.816352 0.001 0.001
4:04 am 04:04 Cloudy with Light Wintry Mix 28 -2 25 -4 86 86 NW 36 57 29.94 1014 2 3.218688 0 0
4:12 am 04:12 Cloudy with Light Wintry Mix 28 -2 25 -4 86 86 NW 37 59 29.94 1014 1.5 2.414016 0 0
4:50 am 04:50 Very Windy with Snow Likely 27 -3 25 -4 93 93 NW 38 61 29.97 1015 2 3.218688 0 0
4:53 am 04:53 Mostly Cloudy with Scattered Snow Showers 27 -2.8 24 -4.4 89 89 NW 38 61 29.88 1012 2 3.218688 0.001 0.001
5:00 am 05:00 Windy with Snow Likely 27 -3 25 -4 93 93 NW 32 52 29.97 1015 1.5 2.414016 0 0
5:53 am 05:53 Mostly Cloudy with Scattered Snow Showers 26 -3.3 23 -5 88 88 NW 38 61 29.94 1014 1.25 2.01168 0.001 0.001
6:11 am 06:11 Partly Cloudy with Scattered Snow Showers 26 -3.3 23 -5 88 88 NW 37 59 30.06 1018 1.5 2.414016 0.001 0.001
6:26 am 06:26 Partly Cloudy with Isolated Snow Showers 26 -3.3 22 -5.6 84 84 NW 38 61 30.09 1019 2 3.218688 0.001 0.001
6:35 am 06:35 Partly Cloudy with Isolated Snow Showers 26 -3.3 22 -5.6 84 84 NW 37 59 30.09 1019 1.75 2.816352 0.001 0.001
6:53 am 06:53 Mostly Cloudy with Scattered Snow Showers 26 -3.3 22 -5.6 84 84 NW 35 56 30 1016 2 3.218688 0.001 0.001
7:22 am 07:22 Partly Cloudy with Isolated Snow Showers 26 -3.3 22 -5.6 84 84 NW 35 56 30.09 1019 1.5 2.414016 0.001 0.001
7:53 am 07:53 Windy with Snow Likely 26 -3.3 22 -5.6 84 84 NW 36 57 30.03 1017 2 3.218688 0.001 0.001
8:14 am 08:14 Windy with Snow Likely 27 -3 21 -6 80 80 NW 37 59 30.12 1020 1.75 2.816352 0 0
8:53 am 08:53 Very Windy with Snow Likely 27 -2.8 22 -5.6 81 81 NW 39 63 30.06 1018 2 3.218688 0.001 0.001
9:01 am 09:01 Windy with Snow Likely 27 -2.8 22 -5.6 81 81 NW 33 54 30.15 1021 1.5 2.414016 0.001 0.001
9:11 am 09:11 Windy with Snow Likely 27 -2.8 22 -5.6 81 81 NW 33 54 30.15 1021 2 3.218688 0.001 0.001
9:30 am 09:30 Windy with Snow Likely 27 -3 21 -6 80 80 NW 37 59 30.18 1022 1.25 2.01168 0 0
9:53 am 09:53 Very Windy with Snow Likely 27 -2.8 22 -5.6 81 81 NW 39 63 30.12 1020 1.5 2.414016 0.001 0.001
10:37 am 10:37 Sunny with Light Wintry Mix 29 -1.7 23 -5 78 78 NW 39 63 30.21 1023 2 3.218688 0.001 0.001
10:53 am 10:53 Sunny with Light Wintry Mix 29 -1.7 23 -5 78 78 NW 39 63 30.15 1021 2 3.218688 0.001 0.001
11:01 am 11:01 Sunny with Light Wintry Mix 29 -1.7 23 -5 78 78 NNW 38 61 30.24 1024 1.75 2.816352 0.001 0.001
11:46 am 11:46 Sunny with Light Wintry Mix 30 -1.1 23 -5 75 75 NNW 31 50 30.24 1024 3 4.828032 0.001 0.001
11:53 am 11:53 Sunny with Light Wintry Mix 31 -0.6 23 -5 72 72 NNW 28 44 30.15 1021 8 12.874752 0.001 0.001
12:53 pm 12:53 Partly Cloudy with Light Wintry Mix 32 0 24 -4.4 73 73 NNW 29 46 30.18 1022 9 14.484096 0.001 0.001
1:53 pm 13:53 Mostly Cloudy 33 0.6 24 -4.4 70 70 NW 26 43 30.18 1022 10 16.09344 0.001 0.001
2:53 pm 14:53 Mostly Cloudy 33 0.6 21 -6.1 61 61 NW 33 54 30.21 1023 10 16.09344 0.001 0.001
3:53 pm 15:53 Mostly Sunny 33 0.6 23 -5 66 66 NW 28 44 30.24 1024 10 16.09344 0 0
4:53 pm 16:53 Mostly Sunny 33 0.6 20 -6.7 58 58 NW 29 46 30.27 1025 10 16.09344 0 0
5:53 pm 17:53 Sunny 31 -0.6 20 -6.7 64 64 NW 23 37 30.3 1026 10 16.09344 0 0
6:53 pm 18:53 Sunny 30 -1.1 20 -6.7 66 66 NW 16 26 30.33 1027 10 16.09344 0 0
7:53 pm 19:53 Mostly Clear 29 -1.7 20 -6.7 69 69 NNW 20 31 30.33 1027 10 16.09344 0 0
8:53 pm 20:53 Clear 26 -3.3 19 -7.2 75 75 NW 9 15 30.36 1028 10 16.09344 0 0
9:53 pm 21:53 Clear 21 -6.1 17 -8.3 85 85 W 5 7 30.39 1029 10 16.09344 0 0
10:53 pm 22:53 Clear 21 -6.1 17 -8.3 85 85 WNW 7 11 30.39 1029 10 16.09344 0 0
11:53 pm 23:53 Mostly Cloudy 18 -7.8 16 -8.9 92 92 NNW 6 9 30.39 1029 10 16.09344 0 0

Powered by AerisWeather